Weather reports worldwide

Advertisment
Llanes, Spain (8016): temperature & dewpoint: 03.08.2020 22:00:00 - 09.08.2020 22:00:00 (CEST)Llanes, Spain (8016): wind speed & gusts: 03.08.2020 22:00:00 - 09.08.2020 22:00:00 (CEST)Llanes, Spain (8016): wind direction: 03.08.2020 22:00:00 - 09.08.2020 22:00:00 (CEST)Llanes, Spain (8016): reduced air pressure: 03.08.2020 22:00:00 - 09.08.2020 22:00:00 (CEST)Llanes, Spain (8016): visibility: 03.08.2020 22:00:00 - 09.08.2020 22:00:00 (CEST)Llanes, Spain (8016): sunshine duration: 03.08.2020 22:00:00 - 09.08.2020 22:00:00 (CEST)Llanes, Spain (8016): precipitation: 03.08.2020 22:00:00 - 09.08.2020 22:00:00 (CEST)
Date & Time tt [°C] td [°C] ff [km/h] ff [kn] fx [km/h] fx [kn] dd ppp [hPa] vv [km] sd [min] rr [mm]
09.08.2020 22:00:00 - - - - - - - - - - -
09.08.2020 21:00:00 21,8 17,0 5 3 14 8 WSW 1015,2 20 0 0,0
09.08.2020 20:00:00 21,9 17,1 5 3 17 9 W 1014,7 20 0 -
09.08.2020 19:00:00 21,8 17,0 10 6 19 10 NW 1014,8 15 0 0,0
09.08.2020 18:00:00 21,9 17,5 10 6 20 11 NW 1014,8 19 0 0,0
09.08.2020 17:00:00 22,2 17,8 9 5 17 9 NW 1015,1 20 0 0,0
09.08.2020 16:00:00 22,2 17,5 9 5 23 12 NW 1015,3 20 0 0,0
09.08.2020 15:00:00 22,0 17,5 13 7 25 13 NW 1015,5 20 0 0,0
09.08.2020 14:00:00 22,3 17,9 11 6 21 12 NW 1015,7 20 0 -
09.08.2020 13:00:00 22,1 18,1 10 5 14 8 NW 1016,0 20 0 0,0
09.08.2020 12:00:00 21,9 18,3 7 4 11 6 NW 1016,4 19 0 0,0
09.08.2020 11:00:00 21,9 18,3 4 2 8 4 NNW 1016,5 16 0 0,0
09.08.2020 10:00:00 21,8 18,8 1 1 10 5 N 1016,6 15 0 0,0
09.08.2020 09:00:00 21,2 18,2 3 2 11 6 W 1016,3 16 0 0,0
09.08.2020 08:00:00 20,8 17,8 3 2 8 5 W 1016,3 13 0 -
09.08.2020 07:00:00 20,8 17,8 3 2 9 5 W 1016,6 12 0 0,0
09.08.2020 06:00:00 21,1 17,7 4 2 8 5 W 1016,6 16 0 0,0
09.08.2020 05:00:00 21,2 17,6 4 2 9 5 SSW 1017,1 16 0 0,0
09.08.2020 04:00:00 21,4 18,0 3 2 6 4 SSW 1017,6 19 0 0,0
09.08.2020 03:00:00 21,5 18,1 3 1 6 3 SSW 1017,8 19 0 0,0
09.08.2020 02:00:00 21,5 18,1 4 2 16 9 NW 1017,8 18 0 -
09.08.2020 01:00:00 21,5 17,9 6 4 13 7 W 1017,9 19 0 0,0
09.08.2020 00:00:00 21,6 18,0 5 3 10 5 W 1018,2 18 0 0,0
08.08.2020 23:00:00 21,8 18,0 3 2 11 6 WNW 1018,6 17 0 0,0
08.08.2020 22:00:00 22,0 18,2 8 4 23 13 E 1018,7 17 0 0,0
08.08.2020 21:00:00 22,2 18,0 4 2 13 7 NNE 1019,0 20 0 0,0
08.08.2020 20:00:00 22,2 17,8 9 5 13 7 NW 1018,9 20 0 -
08.08.2020 19:00:00 22,3 18,1 7 4 17 9 ENE 1018,6 19 0 0,0
08.08.2020 18:00:00 23,5 17,9 5 3 12 6 NNE 1019,3 15 45 0,0
08.08.2020 17:00:00 24,6 18,1 7 4 14 7 NE 1019,4 20 60 0,0
08.08.2020 16:00:00 23,9 17,9 5 3 20 11 NNE 1020,0 19 60 0,0
08.08.2020 15:00:00 25,0 19,1 9 5 19 10 NNW 1020,1 19 60 0,0
08.08.2020 14:00:00 24,6 18,8 8 4 14 8 NNW 1020,3 20 59 -
08.08.2020 13:00:00 23,9 18,3 9 5 18 10 NNW 1020,4 18 60 0,0
08.08.2020 12:00:00 23,5 17,9 9 5 16 8 NNW 1020,5 20 60 0,0
08.08.2020 11:00:00 23,2 17,5 9 5 15 8 NNW 1020,5 20 60 0,0
08.08.2020 10:00:00 22,5 17,6 8 5 15 8 NW 1020,6 20 60 0,0
08.08.2020 09:00:00 20,4 16,6 4 2 12 7 WSW 1020,7 20 25 0,0
08.08.2020 08:00:00 18,6 15,1 9 5 18 10 SW 1020,5 20 0 -
08.08.2020 07:00:00 18,5 15,0 8 4 16 9 SW 1020,4 20 0 0,0
08.08.2020 06:00:00 18,9 15,2 5 3 13 7 W 1020,3 20 0 0,0
08.08.2020 05:00:00 18,9 15,0 7 4 14 7 WSW 1020,5 20 0 0,0
08.08.2020 04:00:00 19,3 15,2 6 4 11 6 WSW 1020,4 20 0 0,0
08.08.2020 03:00:00 19,6 15,6 6 3 13 7 WSW 1020,6 20 0 0,0
08.08.2020 02:00:00 20,2 15,8 5 3 11 6 WSW 1020,6 20 0 -
08.08.2020 01:00:00 20,3 16,3 4 2 10 5 SW 1020,8 20 0 0,0
08.08.2020 00:00:00 20,6 16,4 6 3 13 7 WSW 1020,5 20 0 0,0
07.08.2020 23:00:00 21,3 16,7 5 3 22 12 WSW 1020,3 19 0 0,0
07.08.2020 22:00:00 21,8 17,0 11 6 35 19 W 1019,8 20 0 0,0
07.08.2020 21:00:00 22,7 16,7 18 10 40 22 WNW 1018,9 20 50 0,0
07.08.2020 20:00:00 23,8 16,3 21 12 36 19 WNW 1018,8 20 58 -
07.08.2020 19:00:00 24,6 16,8 19 10 41 22 WNW 1018,1 20 60 0,0
07.08.2020 18:00:00 24,6 17,1 19 11 41 22 WNW 1017,4 20 52 0,0
07.08.2020 17:00:00 24,7 17,7 23 13 47 26 WNW 1017,4 20 57 0,0
07.08.2020 16:00:00 24,5 17,7 22 12 43 23 NW 1017,5 20 56 0,0
07.08.2020 15:00:00 24,0 17,7 22 12 41 22 NW 1017,3 20 9 0,0
07.08.2020 14:00:00 23,6 18,0 18 10 46 25 NW 1017,2 20 0 -
07.08.2020 13:00:00 23,4 17,9 22 12 42 23 NW 1016,7 20 0 0,0
07.08.2020 12:00:00 23,2 18,1 19 11 32 17 NW 1016,4 18 19 0,0
07.08.2020 11:00:00 23,5 18,2 16 9 27 15 NW 1016,0 16 60 0,0
07.08.2020 10:00:00 23,1 18,4 12 7 21 11 NW 1015,8 15 60 0,0
07.08.2020 09:00:00 21,6 18,4 3 1 13 7 W 1015,4 15 27 0,0
07.08.2020 08:00:00 20,2 17,4 6 3 13 7 SW 1015,0 12 0 -
07.08.2020 07:00:00 20,5 17,5 4 2 13 7 W 1014,5 13 0 0,0
07.08.2020 06:00:00 21,0 18,0 4 2 13 7 SW 1014,2 10 0 0,0
07.08.2020 05:00:00 21,7 18,3 6 3 24 13 W 1014,1 15 0 0,0
07.08.2020 04:00:00 22,0 18,6 12 7 28 15 WNW 1014,0 14 0 0,0
07.08.2020 03:00:00 22,2 18,8 11 6 36 19 WNW 1014,0 20 0 0,0
07.08.2020 02:00:00 22,2 19,3 15 8 29 16 WNW 1014,0 20 0 -
07.08.2020 01:00:00 22,1 19,6 14 8 26 14 WNW 1013,4 17 0 0,0
07.08.2020 00:00:00 21,7 18,7 6 3 13 7 W 1012,8 20 0 0,0
06.08.2020 23:00:00 22,7 19,3 2 1 6 3 SW 1012,3 20 0 0,0
06.08.2020 22:00:00 23,1 19,3 3 2 10 5 SE 1011,8 14 8 0,0
06.08.2020 21:00:00 24,4 19,1 6 4 15 8 ESE 1011,9 11 60 0,0
06.08.2020 20:00:00 25,7 19,1 9 5 12 6 E 1011,6 20 45 -
06.08.2020 19:00:00 26,1 19,0 7 4 12 6 E 1011,7 20 55 0,0
06.08.2020 18:00:00 26,7 19,3 8 4 12 6 E 1011,7 18 60 0,0
06.08.2020 17:00:00 26,9 19,5 6 3 10 5 E 1012,0 20 56 0,0
06.08.2020 16:00:00 27,5 19,3 9 5 15 8 E 1012,5 20 60 0,0
06.08.2020 15:00:00 26,6 18,2 10 6 16 9 E 1012,6 20 60 0,0
06.08.2020 14:00:00 26,8 18,1 4 2 7 4 E 1012,8 20 60 -
06.08.2020 13:00:00 25,0 17,0 3 2 8 4 ENE 1013,0 20 60 0,0
06.08.2020 12:00:00 24,0 17,9 4 2 6 3 E 1013,3 20 60 0,0
06.08.2020 11:00:00 22,6 16,6 2 1 6 4 NNE 1013,5 20 60 0,0
06.08.2020 10:00:00 21,2 16,4 3 2 6 3 N 1013,5 20 60 0,0
06.08.2020 09:00:00 19,4 16,0 1 1 10 5 NW 1013,6 20 32 0,0
06.08.2020 08:00:00 17,9 15,0 2 1 6 3 SW 1013,7 20 0 -
06.08.2020 07:00:00 17,6 14,7 5 3 12 6 SW 1013,6 20 0 0,0
06.08.2020 06:00:00 17,6 14,3 4 2 7 4 WSW 1013,8 20 0 0,0
06.08.2020 05:00:00 17,8 14,1 1 1 16 9 WSW 1013,9 20 0 0,0
06.08.2020 04:00:00 18,1 14,4 9 5 14 8 WSW 1014,0 20 0 0,0
06.08.2020 03:00:00 17,9 14,4 8 5 13 7 WSW 1014,4 20 0 0,0
06.08.2020 02:00:00 18,4 14,7 7 4 13 7 WSW 1014,8 20 0 -
06.08.2020 01:00:00 18,8 15,1 10 5 13 7 WSW 1014,9 20 0 0,0
06.08.2020 00:00:00 20,0 16,0 3 2 8 5 SW 1015,1 20 0 0,0
05.08.2020 23:00:00 21,0 16,6 2 1 6 3 SSW 1015,1 20 0 0,0
05.08.2020 22:00:00 22,0 16,7 3 1 6 3 SSE 1014,7 20 21 0,0
05.08.2020 21:00:00 24,8 17,1 3 2 6 3 E 1014,1 20 60 0,0
05.08.2020 20:00:00 26,0 17,6 1 1 7 4 E 1013,7 20 58 -
05.08.2020 19:00:00 26,3 17,9 4 2 23 12 E 1013,6 20 60 0,0
05.08.2020 18:00:00 26,6 17,7 7 4 11 6 E 1013,5 20 60 0,0
05.08.2020 17:00:00 26,0 17,4 5 3 8 4 E 1013,8 20 60 0,0
05.08.2020 16:00:00 26,0 17,4 3 2 8 4 E 1014,0 20 60 0,0
05.08.2020 15:00:00 24,4 16,6 4 2 7 4 ENE 1014,2 20 60 0,0
05.08.2020 14:00:00 24,2 16,7 5 3 8 5 NE 1014,2 20 60 -
05.08.2020 13:00:00 24,0 17,9 4 2 10 6 NNW 1014,0 20 60 0,0
05.08.2020 12:00:00 23,0 17,2 4 2 7 4 N 1014,2 20 60 0,0
05.08.2020 11:00:00 21,7 17,1 3 2 10 5 N 1014,0 19 60 0,0
05.08.2020 10:00:00 19,9 16,3 6 3 10 5 NNW 1014,1 20 60 0,0
05.08.2020 09:00:00 18,1 15,5 1 1 7 4 WNW 1014,0 20 32 0,0
05.08.2020 08:00:00 16,6 14,2 3 2 9 5 WSW 1013,7 20 0 -
05.08.2020 07:00:00 16,7 14,3 2 1 11 6 W 1013,6 20 0 0,0
05.08.2020 06:00:00 16,9 14,5 7 4 12 7 WSW 1013,8 20 0 0,0
05.08.2020 05:00:00 17,0 14,4 8 4 11 6 WSW 1014,3 20 0 0,0
05.08.2020 04:00:00 17,2 14,4 8 4 11 6 WSW 1014,6 20 0 0,0
05.08.2020 03:00:00 17,9 15,0 5 3 13 7 WSW 1015,2 20 0 0,0
05.08.2020 02:00:00 18,3 15,0 7 4 12 7 W 1015,9 20 0 -
05.08.2020 01:00:00 18,9 15,2 4 2 10 5 SW 1016,1 20 0 0,0
05.08.2020 00:00:00 20,0 16,0 4 2 11 6 SE 1016,4 15 0 0,0
04.08.2020 23:00:00 20,2 15,6 6 3 17 9 S 1016,8 20 0 0,0
04.08.2020 22:00:00 21,0 15,8 11 6 30 16 ESE 1016,6 16 22 0,0
04.08.2020 21:00:00 22,6 16,4 20 11 32 18 ESE 1016,7 20 59 0,0
04.08.2020 20:00:00 23,1 16,4 19 11 30 16 ESE 1016,8 20 59 -
04.08.2020 19:00:00 23,4 16,9 21 11 32 17 E 1016,7 20 60 0,0
04.08.2020 18:00:00 24,3 17,1 16 9 31 17 ESE 1017,3 20 60 0,0
04.08.2020 17:00:00 24,2 16,7 18 10 25 14 E 1018,1 20 60 0,0
04.08.2020 16:00:00 25,8 16,9 18 10 25 14 E 1018,3 20 60 0,0
04.08.2020 15:00:00 25,2 16,9 19 10 28 15 E 1018,6 20 60 0,0
04.08.2020 14:00:00 26,1 16,9 17 9 24 13 E 1018,9 20 60 -
04.08.2020 13:00:00 25,7 16,2 16 9 22 12 E 1019,2 20 60 0,0
04.08.2020 12:00:00 24,9 15,8 15 8 24 13 E 1019,3 20 60 0,0
04.08.2020 11:00:00 23,9 16,1 8 5 12 7 E 1019,1 20 60 0,0
04.08.2020 10:00:00 20,4 15,4 3 2 5 3 NE 1019,3 20 55 0,0
04.08.2020 09:00:00 19,3 14,8 1 1 10 5 NW 1019,0 20 26 0,0
04.08.2020 08:00:00 17,8 14,3 7 4 11 6 WSW 1018,8 20 0 -
04.08.2020 07:00:00 18,3 14,4 4 2 10 6 WSW 1018,7 20 0 0,0
04.08.2020 06:00:00 18,5 14,4 7 4 11 6 WSW 1018,8 20 0 0,0
04.08.2020 05:00:00 18,8 14,7 5 3 9 5 WSW 1018,9 20 0 0,0
04.08.2020 04:00:00 19,2 14,6 3 2 8 5 SW 1019,1 20 0 0,0
04.08.2020 03:00:00 19,8 13,9 4 2 11 6 SSW 1019,8 20 0 0,0
04.08.2020 02:00:00 19,8 14,1 4 2 9 5 S 1019,7 20 0 -
04.08.2020 01:00:00 19,9 14,5 6 3 12 6 SSW 1020,0 20 0 0,0
04.08.2020 00:00:00 20,3 14,2 4 2 10 5 S 1020,1 20 0 0,0
03.08.2020 23:00:00 20,4 14,3 5 3 10 5 S 1019,8 20 0 0,0
03.08.2020 22:00:00 20,7 14,1 4 2 14 7 S 1019,3 20 0 0,0

tt = temperature
td = dewpoint
ff = wind speed
fx = gusts
dd = wind direction
ppp = reduced air pressure
vv = visibility
sd = sunshine duration
rr = precipitation

Next stations